Total_Precipitation_Accumulation
0.86 0.87 0.90 0.85 0.81 0.79 0.81 0.98 1.24 1.07 0.60 0.37 0.36 0.41 0.54 0.68 0.81 0.85 0.83 0.90 0.90 0.90 0.97 1.04 1.09 1.15 1.31 1.67 2.43 3.36 4.12 4.34 4.08 3.53 3.26 3.49 3.85 4.33
0.94 0.92 0.92 0.89 0.87 0.85 0.86 0.88 1.03 1.20 0.91 0.41 0.36 0.38 0.50 0.64 0.78 0.79 0.78 0.89 0.91 0.93 0.92 0.94 1.03 1.14 1.25 1.41 1.75 2.48 3.30 3.98 4.28 4.26 4.05 3.96 4.14 4.43
1.08 1.08 1.00 0.95 0.99 0.95 0.94 0.94 0.95 1.09 1.10 0.54 0.37 0.41 0.55 0.68 0.74 0.75 0.75 0.77 0.79 0.89 0.93 0.94 0.95 1.03 1.17 1.31 1.48 1.86 2.55 3.25 3.86 4.30 4.57 4.52 4.45 4.45
1.21 1.18 1.12 1.10 1.09 1.04 1.08 1.05 0.97 0.97 1.10 0.86 0.52 0.48 0.55 0.64 0.72 0.79 0.80 0.80 0.78 0.86 0.90 0.98 1.03 1.04 1.09 1.21 1.35 1.51 1.88 2.44 3.05 3.66 4.11 4.25 4.31 4.54
1.29 1.31 1.27 1.26 1.24 1.18 1.17 1.18 1.11 1.03 1.06 1.07 0.75 0.58 0.61 0.68 0.80 0.87 0.90 0.95 0.93 0.96 0.96 0.99 1.09 1.15 1.14 1.19 1.33 1.42 1.52 1.77 2.19 2.88 3.59 3.90 3.94 4.06
1.35 1.37 1.39 1.41 1.40 1.40 1.46 1.44 1.43 1.42 1.34 1.29 1.05 0.83 0.78 0.80 0.93 0.99 0.99 0.99 1.04 1.01 1.06 1.02 1.06 1.13 1.16 1.14 1.17 1.22 1.36 1.66 1.99 2.37 2.95 3.42 3.55 3.59
1.42 1.39 1.40 1.52 1.67 1.82 1.95 1.87 1.76 1.80 1.74 1.65 1.44 1.18 1.03 1.03 1.12 1.08 1.12 1.07 1.11 1.11 1.09 1.03 0.98 0.95 1.01 1.13 1.22 1.26 1.32 1.50 1.74 2.07 2.50 2.96 3.29 3.39
1.43 1.37 1.38 1.47 1.53 1.67 1.84 1.85 1.84 1.98 2.04 1.94 1.73 1.49 1.18 1.08 1.19 1.36 1.46 1.50 1.42 1.20 1.20 1.20 1.11 1.09 1.06 1.07 1.24 1.31 1.37 1.53 1.66 1.84 2.19 2.55 2.93 3.29
1.24 1.23 1.24 1.31 1.43 1.33 1.47 1.55 1.57 1.66 1.82 1.92 1.95 1.63 1.38 1.28 1.53 1.74 1.75 1.73 1.46 1.25 1.41 1.56 1.42 1.34 1.24 1.26 1.38 1.31 1.37 1.48 1.62 1.74 1.89 2.18 2.55 2.96
1.16 1.15 1.13 1.12 1.22 1.40 1.45 1.41 1.28 1.27 1.44 1.61 1.77 1.65 1.55 1.62 1.93 2.21 2.28 2.29 1.97 1.60 1.54 1.79 1.63 1.57 1.50 1.43 1.45 1.34 1.36 1.40 1.47 1.63 1.81 1.99 2.22 2.55
1.18 1.19 1.20 1.10 1.29 1.53 1.55 1.47 1.28 1.16 1.24 1.48 1.68 1.79 1.89 2.06 2.32 2.68 2.80 2.89 2.69 2.19 1.87 1.90 1.78 1.70 1.71 1.66 1.60 1.52 1.41 1.40 1.40 1.48 1.64 1.84 2.08 2.35
1.23 1.26 1.42 1.38 1.43 1.52 1.51 1.57 1.54 1.24 1.10 1.18 1.28 1.40 1.49 1.67 2.06 2.30 2.50 2.76 2.71 2.53 2.08 2.01 2.00 1.99 2.18 1.85 1.59 1.47 1.41 1.45 1.42 1.38 1.42 1.58 1.85 2.04
1.37 1.36 1.39 1.53 1.48 1.50 1.53 1.52 1.58 1.44 1.30 1.30 1.27 1.25 1.32 1.48 1.68 1.93 2.19 2.50 2.69 2.52 2.04 2.22 2.42 2.26 2.29 2.03 1.68 1.50 1.40 1.34 1.27 1.28 1.33 1.43 1.62 1.82
1.41 1.27 1.34 1.54 1.50 1.51 1.46 1.53 1.62 1.58 1.46 1.42 1.33 1.22 1.22 1.36 1.46 1.67 1.98 2.16 2.28 2.29 2.04 2.28 2.69 2.43 2.41 2.15 1.85 1.67 1.53 1.45 1.31 1.21 1.15 1.35 1.49 1.67
1.44 1.53 1.48 1.52 1.50 1.39 1.36 1.44 1.46 1.40 1.49 1.48 1.32 1.15 1.08 1.20 1.34 1.52 1.78 2.02 2.13 2.14 2.11 2.14 2.39 2.43 2.51 2.37 1.92 1.68 1.70 1.68 1.46 1.32 1.22 1.16 1.19 1.37
1.47 1.55 1.53 1.43 1.40 1.36 1.35 1.32 1.27 1.34 1.44 1.40 1.25 1.14 1.11 1.21 1.37 1.50 1.71 1.92 2.18 2.18 2.11 2.15 2.35 2.63 2.67 2.22 1.98 1.81 1.66 1.79 1.64 1.44 1.32 1.24 1.18 1.19
1.66 1.63 1.55 1.48 1.48 1.38 1.29 1.25 1.24 1.33 1.40 1.29 1.26 1.27 1.29 1.33 1.39 1.43 1.60 1.77 1.99 1.96 1.97 2.14 2.36 2.55 2.66 2.51 2.30 1.93 1.71 1.65 1.61 1.54 1.47 1.42 1.36 1.28
1.66 1.61 1.44 1.32 1.30 1.27 1.26 1.25 1.20 1.19 1.20 1.24 1.29 1.30 1.32 1.34 1.37 1.38 1.49 1.66 1.78 1.75 1.80 1.96 2.22 2.50 2.70 2.81 2.52 2.06 1.80 1.71 1.67 1.62 1.52 1.51 1.51 1.44
1.36 1.27 1.19 1.17 1.17 1.16 1.16 1.17 1.13 1.06 1.10 1.21 1.27 1.28 1.29 1.33 1.36 1.38 1.42 1.53 1.62 1.65 1.72 1.85 2.09 2.38 2.45 2.42 2.51 2.19 1.95 1.82 1.74 1.75 1.65 1.50 1.51 1.50
1.13 1.11 1.11 1.09 1.12 1.15 1.12 1.10 1.08 1.07 1.12 1.17 1.22 1.23 1.28 1.34 1.34 1.31 1.32 1.42 1.51 1.56 1.62 1.72 1.94 2.24 2.44 2.28 2.28 2.26 2.18 1.99 1.83 1.81 1.75 1.63 1.58 1.63
1.02 1.01 1.01 1.07 1.08 1.07 1.05 1.04 1.05 1.05 1.05 1.10 1.14 1.18 1.22 1.30 1.30 1.21 1.23 1.32 1.43 1.47 1.51 1.50 1.62 1.92 2.24 2.30 2.23 2.08 2.15 2.26 2.04 1.89 1.83 1.83 1.81 1.77
0.92 0.94 0.95 0.98 1.04 1.08 1.05 1.03 1.03 1.00 1.00 1.05 1.06 1.08 1.11 1.19 1.23 1.18 1.22 1.29 1.30 1.33 1.39 1.40 1.45 1.71 2.12 2.36 2.24 2.01 2.01 2.19 2.35 2.17 1.93 1.88 2.06 2.18
0.94 0.94 0.92 0.93 0.97 1.02 1.06 1.05 1.01 0.94 0.93 0.99 1.01 1.00 1.03 1.10 1.09 1.13 1.16 1.20 1.25 1.26 1.32 1.41 1.46 1.62 1.92 2.11 2.22 2.12 1.98 1.98 2.08 2.19 2.30 2.01 1.68 1.62